Regional Weather Roundup
Issued by NWS

Home | Current Version | Previous Version | Text Only | Print | Product List | Glossary Off
Versions: 1 2 3 4 5 6 7 8 9 10 11 12 13 14 15 16 17 18 19 20 21 22 23 24 25 26 27 28 29 30 31 32 33 34 35 36 37 38 39 40 41 42 43 44 45 46 47 48 49 50

000
ASUS43 KIND 020409
RWRIN

WEATHER ROUNDUP FOR INDIANA
NATIONAL WEATHER SERVICE INDIANAPOLIS IN
1200 AM EDT THU APR 02 2015

NOTE: "FAIR" INDICATES FEW OR NO CLOUDS BELOW 12,000 FEET WITH NO
SIGNIFICANT WEATHER AND/OR OBSTRUCTIONS TO VISIBILITY.

* - STATION DOES NOT REPORT WEATHER SUCH AS PRECIPITATION OR FOG.

+ - STATION NOT QUALITY CONTROLLED BY THE NATIONAL WEATHER SERVICE.
    USE DATA WITH CAUTION...ESPECIALLY DEWPOINT AND RELATIVE
    HUMIDITY OBSERVATIONS.

INZ001>003-010>013-019-020-020500-
NORTHWEST INDIANA

CITY           SKY/WX    TMP DP  RH WIND       PRES   REMARKS
GARY /AIRPORT/ PTCLDY    60  31  33 S13       29.87F
KNOX *+        PTCLDY    55  12  18 S16       29.92F
LA PORTE +     PTCLDY    56  36  47 S8        29.92F
MICHIGAN CITY+ CLEAR     57  28  33 S10G17    29.89F
MONTICELLO +   MOCLDY    54  38  54 S7        29.94F
RENSSELAER +   MOCLDY    54  37  54 SE12      29.92F
VALPARAISO     PTCLDY    54  36  50 S12       29.91F

$$

LMZ046-743>745-020500-
SOUTHERN LAKE MICHIGAN

STATION/POSITION TIME  TEMP WIND        PRES
                       AIR  DIR/SP/G
                 (UTC) (F)  (DEG/KT/KT) (MB)
BURNS HARBOR     0400   59  170/ 12/ 20 1012.5S
MICHIGAN CITY    0400   59  150/ 12/ 17   N/A

$$

INZ004-005-014>016-021>024-020500-
NORTH CENTRAL INDIANA

CITY           SKY/WX    TMP DP  RH WIND       PRES   REMARKS
GOSHEN         CLEAR     57  36  45 S13       29.94F
LOGANSPORT +   MOCLDY    52  36  54 SE13      29.96F
PERU/GRISSOM   MOCLDY    52  38  59 S10       29.96F
ROCHESTER +    PTCLDY    55  36  47 S7        29.96F
SOUTH BEND     CLEAR     58  33  39 S15       29.93F
WARSAW +       CLEAR     54  36  50 S6        29.96F

$$

INZ006>009-017-018-025>027-020500-
NORTHEAST INDIANA

CITY           SKY/WX    TMP DP  RH WIND       PRES   REMARKS
ANGOLA *+      CLEAR     52  36  54 S6        29.98F
AUBURN +       CLEAR     54  32  43 S5        29.99F
FORT WAYNE     MOCLDY    49  36  61 S12       30.00F
HUNTINGTON +   CLEAR     51  30  44 S6        29.98F

$$

INZ028-029-035-036-043>045-051>053-020500-
WEST CENTRAL INDIANA

CITY           SKY/WX    TMP DP  RH WIND       PRES   REMARKS
CRAWFORDSVL +  CLOUDY    53  30  41 SE13      29.96F
GREENCASTLE +  MOCLDY    52  32  46 S9        29.99S
LAFAYETTE      MOCLDY    54  36  50 SE7       29.95F
TERRE HAUTE    PTCLDY    55  36  48 SE12      29.96F

$$

INZ030>032-037>040-046>048-054>057-064-065-020500-
CENTRAL INDIANA

CITY           SKY/WX    TMP DP  RH WIND       PRES   REMARKS
CP ATTERBURY + CLOUDY    54  32  43 SE9       30.02F
FISHERS *+     MOCLDY    52  37  58 S10       29.99
FRANKFORT +    MOCLDY    48  38  66 SE9       29.98F
GREENWOOD *+   CLOUDY    54  30  40 SE10      30.01F
INDIANAPOLIS   CLOUDY    56  32  40 SE12      29.98F
-EAGLE CREEK   CLOUDY    58  32  37 S8        29.99F
KOKOMO *+      MOCLDY    52  37  58 S12       29.98F
MARION +       PTCLDY    51  33  51 S9        29.99F
MT COMFORT *+  MOCLDY    52  25  35 S7        30.01F
SHELBYVILLE    MOCLDY    54  35  48 SE13      30.01F
ZIONSVILLE +   MOCLDY    56  32  40 SE10      29.99F

$$

INZ033-034-041-042-049-050-058-059-020500-
EAST CENTRAL INDIANA

CITY           SKY/WX    TMP DP  RH WIND       PRES   REMARKS
MUNCIE         CLEAR     56  30  37 S10       30.00F

$$

INZ060-061-067>069-081>083-085>088-020500-
SOUTHWEST INDIANA

CITY           SKY/WX    TMP DP  RH WIND       PRES   REMARKS
EVANSVILLE     CLOUDY    63  34  33 SE7       29.97F
HUNTINGBURG *+ MOCLDY    57  32  38 SE12      29.99F
WASHINGTON +   MOCLDY    53  35  49 SE8       29.97F

$$

INZ062-063-066-070>080-084-089>092-020500-
SOUTH CENTRAL AND SOUTHEAST INDIANA

CITY           SKY/WX    TMP DP  RH WIND       PRES   REMARKS
BEDFORD +      MOCLDY    55  30  38 SE8       30.01F
BLOOMINGTON    MOCLDY    55  32  41 SE8       29.99F
MADISON *+     CLOUDY    54  27  35 E7        30.06F
NORTH VERNON + CLOUDY    55  27  33 SE6       30.04F
SEYMOUR +      CLOUDY    54  34  47 SE6       30.03

$$




USA.gov is the U.S. government's official web portal to all federal, state and local government web resources and services.